La Porte, IN

10:16 PM CST on February 23, 2018 (GMT -0600)
La Porte Municipal

Weather History for KPPO - August, 2013

Change the Weather History Date:

Thursday, August 1, 2013

  Actual Average (KSBN) Record (KSBN)
Temperature  
Mean Temperature 66 °F -  
Max Temperature 78 °F 81 °F 103 °F (1988)
Min Temperature 54 °F 62 °F 47 °F (1895)
Cooling Degree Days 2    
Growing Degree Days 16 (Base 50)    
Moisture  
Dew Point 56 °F    
Average Humidity 74    
Maximum Humidity 100    
Minimum Humidity 34    
Precipitation  
Precipitation 0.00 in - - ()
Sea Level Pressure  
Sea Level Pressure 29.98 in    
Wind  
Wind Speed 3 mph (NW)    
Max Wind Speed 14 mph    
Max Gust Speed 24 mph    
Visibility 7 miles    
Events Fog    
Averages and records for this station are not official NWS values.
T = Trace of Precipitation, MM = Missing Value Source: NWS Daily Summary

Daily Weather History Graph

Daily Weather History Graph

Search for Another Location

Airport or City:

Trip Planner

Search our weather history database for the weather conditions in past years. The results will help you decide how hot, cold, wet, or windy it might be!

Date:

Astronomy

Aug. 01, 2013 Rise Set
Actual Time 5:41 AM CDT 8:04 PM CDT
Civil Twilight 5:10 AM CDT 8:35 PM CDT
Nautical Twilight 4:31 AM CDT 9:13 PM CDT
Astronomical Twilight 3:48 AM CDT 9:56 PM CDT
Moon 1:17 AM CDT (8/1) 4:13 PM CDT (8/1)
Length of Visible Light 15h 24m
Length of Day
14h 22m
Waning Crescent, 23% of the Moon is Illuminated
Aug 1
Waning Crescent
Aug 6
New
Aug 14
First Quarter
Aug 20
Full
Aug 28
Last Quarter

Hourly Weather History & Observations

Time (CDT) Temp. Dew Point Humidity Pressure Visibility Wind Dir Wind Speed Gust Speed Precip Events Conditions
12:15 AM 61.9 °F 61.9 °F 100% 29.99 in 1.2 mi Calm Calm - N/A   Overcast
12:35 AM 61.9 °F 61.9 °F 100% 29.98 in 1.8 mi NW 3.5 mph - N/A   Mostly Cloudy
12:55 AM 62.1 °F 62.1 °F 100% 29.98 in 2.0 mi WNW 3.5 mph - N/A   Clear
1:15 AM 61.9 °F 61.9 °F 100% 29.98 in 2.0 mi NW 3.5 mph - N/A   Mostly Cloudy
1:35 AM 61.9 °F 61.9 °F 100% 29.97 in 1.8 mi NW 3.5 mph - N/A   Scattered Clouds
1:55 AM 61.9 °F 61.9 °F 100% 29.96 in 1.8 mi Calm Calm - N/A   Mist
2:15 AM 60.3 °F 60.3 °F 100% 29.96 in 0.2 mi Calm Calm - N/A Fog Fog
2:35 AM 61.5 °F 61.5 °F 100% 29.96 in 1.5 mi Calm Calm - N/A   Mist
2:55 AM 59.7 °F 59.7 °F 100% 29.96 in 1.0 mi Calm Calm - N/A   Mist
3:15 AM 59.5 °F 59.5 °F 100% 29.96 in 0.5 mi West 3.5 mph - N/A Fog Fog
3:35 AM 60.3 °F 60.3 °F 100% 29.96 in 1.5 mi Calm Calm - N/A   Mist
3:55 AM 61.2 °F 61.2 °F 100% 29.96 in 2.5 mi Calm Calm - N/A   Clear
4:15 AM 61.0 °F 61.0 °F 100% 29.96 in 1.8 mi NW 4.6 mph - N/A   Mist
4:35 AM 61.2 °F 61.2 °F 100% 29.96 in 1.8 mi NW 3.5 mph - N/A   Mist
4:55 AM 61.2 °F 61.2 °F 100% 29.96 in 1.8 mi Calm Calm - N/A   Mist
5:15 AM 57.0 °F 57.0 °F 100% 29.97 in 0.2 mi Calm Calm - N/A Fog Fog
5:35 AM 56.3 °F 56.3 °F 100% 29.97 in 0.2 mi Calm Calm - N/A Fog Fog
5:55 AM 58.1 °F 58.1 °F 100% 29.98 in 1.5 mi West 3.5 mph - N/A   Mist
6:15 AM 56.7 °F 56.7 °F 100% 29.98 in 1.0 mi Calm Calm - N/A   Mist
6:35 AM 56.5 °F 56.5 °F 100% 29.99 in 2.0 mi Calm Calm - N/A   Clear
6:55 AM 58.5 °F 58.5 °F 100% 29.99 in 2.0 mi Calm Calm - N/A   Clear
7:15 AM 61.0 °F 61.0 °F 100% 29.99 in 4.0 mi Calm Calm - N/A   Clear
7:35 AM 62.2 °F 62.2 °F 100% 30.00 in 7.0 mi Calm Calm - N/A   Clear
7:55 AM 64.9 °F 64.9 °F 100% 29.99 in 10.0 mi West 3.5 mph - N/A   Mostly Cloudy
8:15 AM 67.1 °F 66.2 °F 97% 29.99 in 10.0 mi WNW 4.6 mph - N/A   Scattered Clouds
8:35 AM 68.4 °F 64.6 °F 88% 29.99 in 10.0 mi West 6.9 mph - N/A   Clear
8:55 AM 69.3 °F 63.3 °F 81% 29.99 in 10.0 mi NW 6.9 mph - N/A   Scattered Clouds
9:15 AM 69.1 °F 63.5 °F 82% 29.99 in 10.0 mi NW 9.2 mph - N/A   Mostly Cloudy
9:35 AM 69.8 °F 64.4 °F 83% 29.99 in 10.0 mi WNW 4.6 mph - N/A   Mostly Cloudy
9:55 AM 71.6 °F 61.9 °F 71% 29.99 in 10.0 mi NNW 4.6 mph - N/A   Scattered Clouds
10:15 AM 72.9 °F 61.2 °F 67% 29.99 in 10.0 mi NNW 6.9 mph - N/A   Scattered Clouds
10:35 AM 73.0 °F 61.5 °F 67% 29.99 in 10.0 mi NNW 6.9 mph - N/A   Scattered Clouds
10:55 AM 73.8 °F 59.2 °F 60% 29.99 in 10.0 mi NNW 8.1 mph - N/A   Scattered Clouds
11:15 AM 75.2 °F 58.6 °F 56% 29.99 in 10.0 mi West 5.8 mph - N/A   Scattered Clouds
11:35 AM 75.2 °F 57.0 °F 53% 29.99 in 10.0 mi NW 4.6 mph - N/A   Clear
11:55 AM 76.8 °F 56.7 °F 50% 29.99 in 10.0 mi WNW 6.9 mph - N/A   Scattered Clouds
12:15 PM 77.2 °F 55.9 °F 48% 29.99 in 10.0 mi WNW 8.1 mph 16.1 mph N/A   Scattered Clouds
12:35 PM 75.9 °F 53.1 °F 45% 29.99 in 10.0 mi NW 9.2 mph 24.2 mph N/A   Scattered Clouds
12:55 PM 77.7 °F 53.6 °F 43% 29.99 in 10.0 mi NW 10.4 mph - N/A   Scattered Clouds
1:15 PM 77.4 °F 55.2 °F 46% 29.99 in 10.0 mi NW 9.2 mph 17.3 mph N/A   Scattered Clouds
1:35 PM 77.5 °F 50.2 °F 38% 29.99 in 10.0 mi NW 10.4 mph - N/A   Clear
1:55 PM 77.4 °F 48.6 °F 36% 29.99 in 10.0 mi NNW 9.2 mph 17.3 mph N/A   Scattered Clouds
2:15 PM 77.7 °F 48.9 °F 36% 29.99 in 10.0 mi North 12.7 mph 17.3 mph N/A   Scattered Clouds
2:35 PM 78.1 °F 47.7 °F 34% 29.99 in 10.0 mi North 13.8 mph - N/A   Clear
2:55 PM 78.1 °F 47.5 °F 34% 29.99 in 10.0 mi NNW 10.4 mph 18.4 mph N/A   Clear
3:15 PM 77.9 °F 47.8 °F 35% 29.99 in 10.0 mi North 11.5 mph - N/A   Clear
3:35 PM 77.4 °F 47.5 °F 35% 29.99 in 10.0 mi North 9.2 mph 17.3 mph N/A   Clear
3:55 PM 77.4 °F 48.7 °F 36% 29.99 in 10.0 mi North 10.4 mph 16.1 mph N/A   Clear
4:15 PM 77.0 °F 49.5 °F 38% 29.98 in 10.0 mi North 10.4 mph - N/A   Clear
4:35 PM 76.5 °F 48.6 °F 37% 29.98 in 10.0 mi North 9.2 mph - N/A   Clear
4:55 PM 76.1 °F 48.0 °F 37% 29.98 in 10.0 mi NNW 4.6 mph 19.6 mph N/A   Clear
5:15 PM 75.7 °F 48.4 °F 38% 29.98 in 10.0 mi North 10.4 mph - N/A   Clear
5:35 PM 75.2 °F 48.0 °F 38% 29.97 in 10.0 mi North 9.2 mph - N/A   Scattered Clouds
5:55 PM 74.7 °F 49.3 °F 41% 29.97 in 10.0 mi North 8.1 mph - N/A   Clear
6:15 PM 73.4 °F 50.4 °F 44% 29.97 in 10.0 mi North 6.9 mph - N/A   Scattered Clouds
6:35 PM 73.0 °F 50.5 °F 45% 29.97 in 10.0 mi NNW 6.9 mph - N/A   Clear
6:55 PM 72.3 °F 52.2 °F 49% 29.97 in 10.0 mi NNW 5.8 mph - N/A   Clear
7:15 PM 70.9 °F 51.6 °F 50% 29.97 in 10.0 mi North 4.6 mph - N/A   Clear
7:35 PM 68.4 °F 53.6 °F 59% 29.97 in 10.0 mi NW 3.5 mph - N/A   Clear
7:55 PM 66.4 °F 54.1 °F 65% 29.98 in 10.0 mi Calm Calm - N/A   Clear
8:15 PM 64.0 °F 54.5 °F 71% 29.98 in 10.0 mi Calm Calm - N/A   Clear
8:35 PM 60.3 °F 55.2 °F 83% 29.98 in 10.0 mi Calm Calm - N/A   Clear
8:55 PM 60.1 °F 54.9 °F 83% 29.98 in 7.0 mi Calm Calm - N/A   Clear
9:15 PM 58.5 °F 54.7 °F 87% 29.98 in 10.0 mi Calm Calm - N/A   Clear
9:35 PM 57.0 °F 54.0 °F 89% 29.99 in 10.0 mi Calm Calm - N/A   Scattered Clouds
9:55 PM 56.3 °F 53.2 °F 89% 29.99 in 10.0 mi Calm Calm - N/A   Scattered Clouds
10:15 PM 56.3 °F 54.1 °F 92% 29.99 in 10.0 mi Calm Calm - N/A   Scattered Clouds
10:35 PM 56.7 °F 54.1 °F 91% 29.99 in 10.0 mi Calm Calm - N/A   Clear
10:55 PM 55.6 °F 53.2 °F 92% 29.99 in 10.0 mi Calm Calm - N/A   Scattered Clouds
11:15 PM 55.2 °F 54.1 °F 96% 29.99 in 10.0 mi Calm Calm - N/A   Scattered Clouds
11:35 PM 55.0 °F 53.6 °F 95% 29.99 in 10.0 mi Calm Calm - N/A   Scattered Clouds
11:55 PM 54.1 °F 53.1 °F 96% 29.98 in 10.0 mi Calm Calm - N/A   Clear